Total_Precipitation_Accumulation
1.89 1.94 1.88 1.85 1.82 1.69 1.61 1.68 1.74 1.58 1.43 1.21 1.09 0.98 1.00 1.01 1.11 0.92 0.79 0.74 0.59 0.47 0.40 0.34 0.34 0.37 0.41 0.48 0.55 0.63 0.71 0.71 0.71 0.71 0.69 0.70 0.71 0.69
1.86 1.95 1.96 1.96 1.99 1.90 1.74 1.69 1.63 1.61 1.52 1.28 1.08 0.96 1.09 1.02 1.12 0.93 0.87 0.94 0.75 0.61 0.50 0.43 0.39 0.40 0.38 0.37 0.37 0.39 0.44 0.49 0.55 0.63 0.72 0.88 0.92 0.86
1.68 1.76 1.87 1.97 2.08 2.08 2.04 1.87 1.73 1.68 1.58 1.42 1.19 1.02 1.12 1.17 1.13 1.05 0.96 0.85 0.78 0.71 0.61 0.55 0.49 0.44 0.42 0.41 0.38 0.36 0.35 0.35 0.37 0.45 0.55 0.69 0.95 1.00
1.49 1.46 1.55 1.67 1.81 1.96 2.02 1.95 1.92 1.81 1.71 1.65 1.47 1.21 1.07 1.11 1.15 1.20 1.12 0.95 0.88 0.89 0.80 0.69 0.61 0.52 0.46 0.42 0.39 0.36 0.34 0.33 0.34 0.35 0.38 0.44 0.55 0.71
1.30 1.26 1.28 1.37 1.51 1.64 1.73 1.80 1.90 1.94 1.90 1.79 1.68 1.48 1.23 1.20 1.25 1.25 1.23 1.26 1.08 0.99 0.96 0.88 0.80 0.72 0.64 0.56 0.48 0.42 0.37 0.36 0.37 0.36 0.34 0.35 0.39 0.48
1.06 1.06 1.10 1.12 1.19 1.31 1.45 1.65 1.83 1.93 1.97 1.94 1.85 1.60 1.41 1.36 1.34 1.33 1.36 1.38 1.32 1.15 1.06 0.97 0.97 0.89 0.79 0.68 0.60 0.52 0.47 0.46 0.45 0.44 0.41 0.35 0.31 0.34
0.85 0.77 0.78 0.84 0.85 0.92 0.98 1.25 1.49 1.68 1.79 1.86 1.82 1.64 1.44 1.33 1.22 1.26 1.36 1.47 1.49 1.43 1.34 1.13 1.03 0.94 0.88 0.82 0.73 0.63 0.55 0.51 0.49 0.47 0.47 0.48 0.44 0.39
0.73 0.67 0.66 0.70 0.62 0.58 0.61 0.82 1.10 1.28 1.44 1.60 1.66 1.52 1.41 1.32 1.33 1.32 1.29 1.31 1.30 1.23 1.19 1.22 1.14 1.04 0.95 0.88 0.89 0.85 0.75 0.66 0.58 0.53 0.53 0.55 0.57 0.58
0.77 0.78 0.71 0.66 0.74 0.66 0.60 0.66 0.74 0.85 0.99 1.22 1.43 1.43 1.52 1.44 1.32 1.25 1.23 1.23 1.21 1.23 1.18 1.15 1.11 1.03 0.94 0.90 0.97 0.92 0.89 0.82 0.75 0.69 0.65 0.63 0.63 0.64
0.83 0.92 0.93 0.85 0.83 0.89 0.83 0.83 0.81 0.75 0.81 0.73 0.92 1.27 1.41 1.47 1.39 1.36 1.41 1.31 1.20 1.20 1.15 1.13 1.11 1.04 0.92 0.84 0.88 0.80 0.76 0.73 0.75 0.78 0.81 0.82 0.78 0.75
0.78 0.89 0.92 0.85 0.90 0.96 1.05 1.09 1.01 0.88 1.01 1.02 0.93 1.01 1.13 1.19 1.28 1.30 1.32 1.23 1.17 1.11 0.98 0.91 0.89 0.92 0.93 0.87 0.82 0.81 0.73 0.68 0.65 0.63 0.62 0.65 0.70 0.78
0.80 0.85 0.99 0.89 0.86 0.85 0.93 1.05 1.02 0.91 0.80 0.83 0.80 0.70 0.64 0.75 0.94 1.06 1.26 1.32 1.24 1.11 0.95 0.85 0.86 0.84 0.86 0.79 0.70 0.70 0.68 0.68 0.64 0.59 0.57 0.55 0.57 0.59
0.90 0.95 0.92 0.98 0.83 0.80 0.80 0.80 0.86 0.84 0.82 0.87 0.93 0.84 0.74 0.69 0.73 0.78 0.93 1.10 1.17 1.06 0.95 0.84 0.82 0.81 0.74 0.66 0.64 0.65 0.64 0.61 0.58 0.56 0.55 0.54 0.54 0.51
0.79 0.79 0.76 0.82 0.67 0.59 0.56 0.62 0.67 0.69 0.77 0.91 0.91 0.88 0.87 0.81 0.77 0.76 0.80 0.86 0.93 0.96 0.93 0.86 0.79 0.75 0.70 0.62 0.59 0.62 0.62 0.57 0.53 0.50 0.48 0.55 0.57 0.59
0.51 0.59 0.59 0.57 0.52 0.45 0.50 0.54 0.56 0.57 0.67 0.74 0.78 0.76 0.77 0.80 0.79 0.77 0.76 0.76 0.75 0.70 0.66 0.68 0.73 0.75 0.73 0.66 0.58 0.58 0.60 0.57 0.52 0.51 0.50 0.47 0.45 0.50
0.42 0.43 0.42 0.41 0.42 0.43 0.46 0.50 0.56 0.60 0.62 0.63 0.64 0.67 0.69 0.74 0.78 0.75 0.73 0.76 0.78 0.76 0.72 0.72 0.73 0.79 0.80 0.73 0.65 0.58 0.58 0.59 0.56 0.54 0.52 0.51 0.49 0.46
0.50 0.44 0.40 0.40 0.42 0.49 0.50 0.48 0.51 0.56 0.56 0.55 0.57 0.58 0.58 0.63 0.68 0.67 0.67 0.68 0.67 0.65 0.67 0.71 0.73 0.75 0.75 0.75 0.76 0.71 0.70 0.69 0.66 0.66 0.63 0.57 0.53 0.50
0.48 0.54 0.56 0.60 0.62 0.61 0.58 0.49 0.44 0.45 0.50 0.54 0.54 0.54 0.54 0.53 0.58 0.60 0.59 0.62 0.61 0.56 0.51 0.52 0.58 0.63 0.64 0.61 0.57 0.59 0.65 0.67 0.72 0.75 0.70 0.64 0.57 0.54
0.44 0.59 0.59 0.57 0.54 0.50 0.47 0.40 0.35 0.32 0.34 0.41 0.48 0.55 0.55 0.55 0.59 0.63 0.60 0.54 0.53 0.54 0.51 0.45 0.43 0.48 0.51 0.47 0.45 0.42 0.45 0.53 0.59 0.62 0.62 0.59 0.53 0.54
0.38 0.46 0.45 0.43 0.36 0.29 0.23 0.17 0.16 0.16 0.16 0.21 0.25 0.34 0.48 0.58 0.66 0.68 0.69 0.69 0.66 0.62 0.58 0.50 0.42 0.37 0.38 0.38 0.34 0.30 0.30 0.35 0.44 0.46 0.46 0.49 0.48 0.52
0.18 0.18 0.18 0.18 0.17 0.14 0.10 0.08 0.07 0.07 0.08 0.10 0.14 0.18 0.27 0.40 0.56 0.66 0.69 0.72 0.71 0.71 0.69 0.62 0.58 0.58 0.47 0.43 0.39 0.29 0.26 0.28 0.30 0.32 0.35 0.38 0.38 0.38
0.08 0.08 0.07 0.06 0.07 0.06 0.06 0.06 0.05 0.05 0.06 0.08 0.13 0.19 0.27 0.33 0.37 0.46 0.56 0.61 0.57 0.54 0.56 0.59 0.60 0.60 0.55 0.54 0.49 0.39 0.31 0.28 0.31 0.36 0.33 0.33 0.30 0.28
0.07 0.06 0.06 0.04 0.04 0.05 0.05 0.05 0.04 0.05 0.05 0.07 0.10 0.16 0.23 0.31 0.36 0.37 0.39 0.42 0.47 0.51 0.52 0.53 0.54 0.55 0.56 0.58 0.60 0.55 0.46 0.39 0.37 0.39 0.41 0.50 0.45 0.33